Starlink 32518

operational
NORAD ID: 61967 Int'l Des: 2024-210 Owner: SPXS Country: US Constellation: starlink
LEOCIRCULAR

Über Starlink 32518

Beschreibung wird geladen...

Live-Position

3D-Globus wird geladen...

Nächste Überflüge

Höhenverlauf

Altitude vs Time

uPlot chart will show altitude changes over time

Zweizeiliger Elementsatz

1 61967U 24210J 25305.37688097 .00036541 00000-0 13300-2 0 9999
2 61967 43.0046 177.5781 0002016 272.1447 87.9173 15.27600321 55237
Epoch: 1. Nov. 2025 • Age: 14 hours

Aktueller Status

Höhe 488.5 km
Geschwindigkeit 7.62 km/s
Subsatellitenpunkt -26.48°S, 115.86°E
Startdatum 14. Nov. 2024
Alter 0.9 years
Typ internet

Technische Details

Klassifizierung Payload
Masse 730.00 kg
Trockenmasse 700.00 kg
Gesamtmasse 730.00 kg
Länge 0.30 m
Durchmesser 4.10 m
Spannweite 29.00 m
Form Box + pan
Hersteller SPXS
Bus-Typ Starlink V2M
Phasenstatus In Orbit
Besitzer/Staat SPXS/US

Große Konstellationen

Loading constellations...